ITY715 LFSB-LICC

Flight info

Callsign ITY715
Flight time 1h 51m
Altitude 39000
Route ELBEG Y715 AMRUP N491 TRA N850 GERSA Z50 RESIA DCT BENUS DCT BAGNO DCT GAVRA DCT GITOD DCT TIBER DCT TAGEL DCT AMANO DCT VAKOR DCT PELEN DCT UXUTA
Aircraft A359/H-SDE1E2E3FGHIJ2J3J4J5M1RWXY/LB1D1

Departure

Time 2026-05-07 06:12
Airport EuroAirport Basel–Mulhouse–Freiburg (LFSB)

Arrival

Time 2026-05-07 08:03
Airport Catania-Fontanarossa Airport (LICC)
Time Latitude Longitude Altitude Speed Heading
2026-05-07 05:52 47.60127 7.52687 898 ft 0 kts 245°
2026-05-07 06:00 47.60130 7.52697 898 ft 3 kts 245°
2026-05-07 06:00 47.60140 7.52730 898 ft 3 kts 245°
2026-05-07 06:00 47.60150 7.52749 898 ft 3 kts 182°
2026-05-07 06:01 47.60171 7.52738 898 ft 3 kts 155°
2026-05-07 06:01 47.60183 7.52729 899 ft 0 kts 155°
2026-05-07 06:04 47.60163 7.52742 899 ft 6 kts 157°
2026-05-07 06:04 47.60122 7.52760 899 ft 6 kts 192°
2026-05-07 06:04 47.60092 7.52721 899 ft 6 kts 238°
2026-05-07 06:04 47.60068 7.52655 899 ft 9 kts 243°
2026-05-07 06:05 47.60041 7.52574 899 ft 9 kts 246°
2026-05-07 06:05 47.60002 7.52519 899 ft 8 kts 173°
2026-05-07 06:05 47.59945 7.52553 899 ft 11 kts 156°
2026-05-07 06:05 47.59851 7.52617 899 ft 18 kts 155°
2026-05-07 06:06 47.59742 7.52691 899 ft 17 kts 155°
2026-05-07 06:06 47.59639 7.52761 899 ft 16 kts 154°
2026-05-07 06:06 47.59544 7.52830 899 ft 15 kts 154°
2026-05-07 06:06 47.59453 7.52893 899 ft 14 kts 158°
2026-05-07 06:07 47.59369 7.52950 899 ft 13 kts 147°
2026-05-07 06:07 47.59291 7.53005 899 ft 12 kts 155°
2026-05-07 06:07 47.59217 7.53057 899 ft 11 kts 155°
2026-05-07 06:07 47.59147 7.53105 899 ft 11 kts 154°
2026-05-07 06:08 47.59070 7.53158 899 ft 14 kts 155°
2026-05-07 06:08 47.59006 7.53203 899 ft 16 kts 154°
2026-05-07 06:08 47.58901 7.53276 899 ft 16 kts 155°
2026-05-07 06:08 47.58804 7.53345 899 ft 12 kts 154°
2026-05-07 06:09 47.58745 7.53386 899 ft 8 kts 154°
2026-05-07 06:09 47.58690 7.53402 899 ft 8 kts 197°
2026-05-07 06:09 47.58654 7.53346 899 ft 7 kts 244°
2026-05-07 06:09 47.58632 7.53279 899 ft 7 kts 244°
2026-05-07 06:10 47.58616 7.53215 899 ft 6 kts 273°
2026-05-07 06:10 47.58642 7.53167 899 ft 6 kts 331°
2026-05-07 06:10 47.58663 7.53150 899 ft 0 kts 332°
2026-05-07 06:11 47.58690 7.53129 899 ft 17 kts 332°
2026-05-07 06:11 47.59009 7.52905 899 ft 88 kts 335°
2026-05-07 06:11 47.59782 7.52371 900 ft 155 kts 335°
2026-05-07 06:12 47.60885 7.51602 1243 ft 182 kts 333°
2026-05-07 06:12 47.61997 7.50795 2260 ft 177 kts 333°
2026-05-07 06:12 47.63086 7.50030 3165 ft 172 kts 333°
2026-05-07 06:12 47.64172 7.49279 3865 ft 173 kts 333°
2026-05-07 06:13 47.65305 7.48577 4424 ft 185 kts 343°
2026-05-07 06:13 47.66673 7.48686 4688 ft 213 kts 17°
2026-05-07 06:13 47.67897 7.50068 4986 ft 234 kts 49°
2026-05-07 06:13 47.68564 7.52326 5418 ft 244 kts 73°
2026-05-07 06:14 47.68778 7.54853 6001 ft 250 kts 84°
2026-05-07 06:14 47.68923 7.57454 6623 ft 253 kts 85°
2026-05-07 06:14 47.69041 7.60053 7374 ft 254 kts 86°
2026-05-07 06:14 47.69155 7.62691 7973 ft 259 kts 86°
2026-05-07 06:15 47.69273 7.65373 8600 ft 262 kts 86°
2026-05-07 06:15 47.69394 7.68097 9200 ft 266 kts 85°
2026-05-07 06:15 47.69519 7.70851 9803 ft 268 kts 85°
2026-05-07 06:15 47.69696 7.73604 10396 ft 270 kts 80°
2026-05-07 06:16 47.70133 7.76352 10867 ft 280 kts 73°
2026-05-07 06:16 47.70459 7.77895 11076 ft 287 kts 71°
2026-05-07 06:16 47.71147 7.80770 11492 ft 302 kts 69°
2026-05-07 06:16 47.71912 7.83731 11868 ft 320 kts 68°
2026-05-07 06:17 47.72729 7.86912 12273 ft 338 kts 69°
2026-05-07 06:17 47.73578 7.90281 12704 ft 357 kts 69°
2026-05-07 06:17 47.74458 7.93811 13259 ft 372 kts 69°
2026-05-07 06:17 47.75366 7.97467 13935 ft 382 kts 69°
2026-05-07 06:18 47.76251 8.01234 14720 ft 388 kts 73°
2026-05-07 06:18 47.76647 8.05221 15463 ft 395 kts 89°
2026-05-07 06:18 47.76394 8.09301 16283 ft 397 kts 99°
2026-05-07 06:18 47.75965 8.13384 17019 ft 401 kts 99°
2026-05-07 06:19 47.75390 8.17471 17708 ft 407 kts 105°
2026-05-07 06:19 47.74568 8.21510 18493 ft 410 kts 109°
2026-05-07 06:19 47.73608 8.25516 19264 ft 413 kts 111°
2026-05-07 06:19 47.72567 8.29508 19975 ft 416 kts 112°
2026-05-07 06:20 47.71524 8.33538 20655 ft 419 kts 113°
2026-05-07 06:20 47.70133 8.37329 21183 ft 420 kts 128°
2026-05-07 06:20 47.68033 8.40327 21784 ft 420 kts 146°
2026-05-07 06:20 47.65433 8.42267 22404 ft 420 kts 162°
2026-05-07 06:21 47.62831 8.43346 22911 ft 420 kts 168°
2026-05-07 06:21 47.59957 8.44295 23439 ft 424 kts 170°
2026-05-07 06:21 47.57050 8.45102 24003 ft 427 kts 171°
2026-05-07 06:21 47.54107 8.45824 24552 ft 429 kts 173°
2026-05-07 06:22 47.51131 8.46382 25071 ft 432 kts 175°
2026-05-07 06:22 47.45148 8.47233 26337 ft 431 kts 176°
2026-05-07 06:22 47.42152 8.47656 26792 ft 434 kts 176°
2026-05-07 06:23 47.39133 8.48091 27274 ft 437 kts 176°
2026-05-07 06:23 47.36098 8.48532 27766 ft 439 kts 176°
2026-05-07 06:23 47.33089 8.48970 28225 ft 441 kts 176°
2026-05-07 06:23 47.30028 8.49414 28699 ft 443 kts 176°
2026-05-07 06:24 47.26955 8.49861 29173 ft 444 kts 176°
2026-05-07 06:24 47.23866 8.50312 29602 ft 446 kts 176°
2026-05-07 06:24 47.20768 8.50764 30034 ft 448 kts 176°
2026-05-07 06:24 47.17656 8.51214 30417 ft 451 kts 177°
2026-05-07 06:25 47.14521 8.51667 30765 ft 454 kts 177°
2026-05-07 06:25 47.11366 8.52123 31131 ft 455 kts 177°
2026-05-07 06:25 47.08229 8.52862 31407 ft 461 kts 167°
2026-05-07 06:25 47.05271 8.54789 31641 ft 473 kts 151°
2026-05-07 06:26 47.02733 8.57915 31947 ft 483 kts 136°
2026-05-07 06:26 47.00686 8.61874 32288 ft 490 kts 126°
2026-05-07 06:26 46.99048 8.66211 32659 ft 494 kts 120°
2026-05-07 06:26 46.97521 8.70781 33060 ft 493 kts 121°
2026-05-07 06:27 46.95977 8.75181 33469 ft 491 kts 122°
2026-05-07 06:27 46.94367 8.79599 33859 ft 490 kts 122°
2026-05-07 06:27 46.92744 8.83998 34217 ft 490 kts 123°
2026-05-07 06:27 46.91126 8.88376 34597 ft 490 kts 123°
2026-05-07 06:28 46.89506 8.92758 34929 ft 490 kts 123°
2026-05-07 06:28 46.87887 8.97151 35258 ft 490 kts 122°
2026-05-07 06:28 46.86274 9.01542 35591 ft 491 kts 122°
2026-05-07 06:28 46.84653 9.05939 35893 ft 491 kts 122°
2026-05-07 06:29 46.83029 9.10338 36211 ft 491 kts 123°
2026-05-07 06:29 46.81406 9.14725 36521 ft 491 kts 123°
2026-05-07 06:29 46.79803 9.19054 36805 ft 491 kts 123°
2026-05-07 06:29 46.78173 9.23448 37082 ft 492 kts 122°
2026-05-07 06:30 46.76543 9.27837 37378 ft 491 kts 123°
2026-05-07 06:30 46.74920 9.32223 37646 ft 492 kts 122°
2026-05-07 06:30 46.73332 9.36659 37924 ft 492 kts 122°
2026-05-07 06:30 46.71733 9.41064 38181 ft 492 kts 122°
2026-05-07 06:31 46.70108 9.45445 38414 ft 492 kts 122°
2026-05-07 06:31 46.68466 9.49827 38675 ft 492 kts 123°
2026-05-07 06:31 46.66826 9.54194 38901 ft 492 kts 123°
2026-05-07 06:31 46.65180 9.58572 39001 ft 494 kts 122°
2026-05-07 06:32 46.61876 9.67349 38997 ft 494 kts 122°
2026-05-07 06:32 46.58586 9.76109 38994 ft 492 kts 122°
2026-05-07 06:33 46.55273 9.84831 38994 ft 493 kts 123°
2026-05-07 06:33 46.51952 9.93488 38993 ft 493 kts 123°
2026-05-07 06:34 46.48475 10.02043 38994 ft 489 kts 131°
2026-05-07 06:34 46.43558 10.08640 38995 ft 479 kts 153°
2026-05-07 06:35 46.37606 10.12821 38992 ft 471 kts 160°
2026-05-07 06:35 46.31652 10.16762 38991 ft 470 kts 159°
2026-05-07 06:36 46.25829 10.20954 38990 ft 471 kts 157°
2026-05-07 06:36 46.19994 10.25318 38990 ft 472 kts 157°
2026-05-07 06:37 46.14160 10.29726 38988 ft 472 kts 156°
2026-05-07 06:37 46.08340 10.34134 38988 ft 472 kts 156°
2026-05-07 06:38 46.02781 10.38314 38991 ft 472 kts 156°
2026-05-07 06:38 45.96951 10.42680 38987 ft 472 kts 157°
2026-05-07 06:39 45.91124 10.47030 38985 ft 472 kts 157°
2026-05-07 06:39 45.85327 10.51346 38981 ft 471 kts 157°
2026-05-07 06:40 45.79505 10.55671 38978 ft 471 kts 157°
2026-05-07 06:40 45.73681 10.59986 38975 ft 471 kts 157°
2026-05-07 06:41 45.67862 10.64288 38972 ft 470 kts 157°
2026-05-07 06:41 45.62048 10.68576 38970 ft 470 kts 158°
2026-05-07 06:42 45.56237 10.72852 38968 ft 469 kts 158°
2026-05-07 06:42 45.50464 10.77090 38967 ft 469 kts 158°
2026-05-07 06:43 45.44664 10.81338 38965 ft 468 kts 158°
2026-05-07 06:43 45.38852 10.85585 38964 ft 468 kts 158°
2026-05-07 06:44 45.33061 10.89807 38965 ft 467 kts 158°
2026-05-07 06:44 45.27278 10.94013 38965 ft 467 kts 158°
2026-05-07 06:45 45.21490 10.98213 38966 ft 466 kts 158°
2026-05-07 06:45 45.15753 11.02395 38967 ft 466 kts 158°
2026-05-07 06:46 45.09975 11.06574 38968 ft 466 kts 158°
2026-05-07 06:46 45.04198 11.10726 38970 ft 465 kts 159°
2026-05-07 06:47 44.98422 11.14868 38972 ft 465 kts 159°
2026-05-07 06:47 44.92653 11.18999 38976 ft 464 kts 159°
2026-05-07 06:48 44.86871 11.22924 38989 ft 462 kts 162°
2026-05-07 06:48 44.80936 11.26379 38992 ft 461 kts 163°
2026-05-07 06:49 44.75017 11.29796 38993 ft 459 kts 163°
2026-05-07 06:49 44.69130 11.33259 38991 ft 458 kts 163°
2026-05-07 06:50 44.63257 11.36728 38992 ft 458 kts 163°
2026-05-07 06:50 44.57383 11.40210 38993 ft 458 kts 163°
2026-05-07 06:51 44.51523 11.43707 38993 ft 457 kts 163°
2026-05-07 06:51 44.46651 11.46592 38994 ft 457 kts 163°
2026-05-07 06:52 44.40793 11.50048 38994 ft 456 kts 163°
2026-05-07 06:52 44.34926 11.53499 38993 ft 456 kts 163°
2026-05-07 06:53 44.29085 11.56927 38993 ft 455 kts 163°
2026-05-07 06:53 44.23282 11.60326 38994 ft 454 kts 163°
2026-05-07 06:54 44.17455 11.63741 38998 ft 454 kts 163°
2026-05-07 06:54 44.11633 11.67153 38999 ft 453 kts 163°
2026-05-07 06:55 44.05815 11.70533 39000 ft 453 kts 164°
2026-05-07 06:55 43.99998 11.73901 39002 ft 453 kts 164°
2026-05-07 06:56 43.94178 11.77266 39004 ft 452 kts 164°
2026-05-07 06:56 43.88311 11.80354 39005 ft 448 kts 171°
2026-05-07 06:57 43.82241 11.81670 39006 ft 443 kts 179°
2026-05-07 06:57 43.76186 11.83209 39010 ft 445 kts 169°
2026-05-07 06:58 43.70296 11.86011 39011 ft 450 kts 166°
2026-05-07 06:58 43.64419 11.89081 39011 ft 452 kts 166°
2026-05-07 06:59 43.58510 11.92091 39011 ft 452 kts 166°
2026-05-07 06:59 43.52639 11.95045 39012 ft 452 kts 166°
2026-05-07 07:00 43.46719 11.98009 39013 ft 452 kts 166°
2026-05-07 07:00 43.40800 12.00994 39014 ft 453 kts 166°
2026-05-07 07:01 43.34871 12.03970 39015 ft 453 kts 166°
2026-05-07 07:01 43.28943 12.06929 39016 ft 453 kts 166°
2026-05-07 07:02 43.23006 12.09883 39017 ft 453 kts 166°
2026-05-07 07:02 43.17069 12.12831 39015 ft 454 kts 166°
2026-05-07 07:03 43.11115 12.15781 39017 ft 456 kts 166°
2026-05-07 07:03 43.05150 12.18752 39019 ft 456 kts 166°
2026-05-07 07:04 42.99208 12.21681 39019 ft 457 kts 166°
2026-05-07 07:04 42.93225 12.24620 39019 ft 458 kts 166°
2026-05-07 07:05 42.87226 12.27561 39017 ft 458 kts 166°
2026-05-07 07:05 42.81222 12.30500 39015 ft 459 kts 166°
2026-05-07 07:06 42.75228 12.33552 39012 ft 460 kts 164°
2026-05-07 07:06 42.69264 12.36725 39009 ft 461 kts 164°
2026-05-07 07:07 42.63281 12.39872 39007 ft 461 kts 164°
2026-05-07 07:07 42.57280 12.43014 39005 ft 462 kts 164°
2026-05-07 07:08 42.51292 12.46176 39004 ft 462 kts 164°
2026-05-07 07:08 42.45291 12.49322 39005 ft 462 kts 164°
2026-05-07 07:09 42.39282 12.52446 39008 ft 462 kts 164°
2026-05-07 07:09 42.33273 12.55562 39012 ft 462 kts 164°
2026-05-07 07:10 42.27263 12.58675 39015 ft 463 kts 164°
2026-05-07 07:10 42.21194 12.61546 39019 ft 461 kts 168°
2026-05-07 07:11 42.15052 12.63804 39021 ft 459 kts 171°
2026-05-07 07:11 42.08874 12.65979 39022 ft 459 kts 170°
2026-05-07 07:12 42.02710 12.68226 39023 ft 459 kts 169°
2026-05-07 07:12 41.96535 12.70506 39023 ft 460 kts 169°
2026-05-07 07:13 41.90338 12.72807 39023 ft 463 kts 169°
2026-05-07 07:13 41.84125 12.75135 39024 ft 463 kts 169°
2026-05-07 07:14 41.77911 12.77447 39023 ft 463 kts 169°
2026-05-07 07:14 41.71745 12.79733 39023 ft 463 kts 169°
2026-05-07 07:15 41.65527 12.82033 39023 ft 463 kts 170°
2026-05-07 07:15 41.59312 12.84326 39023 ft 463 kts 170°
2026-05-07 07:16 41.53090 12.86617 39023 ft 463 kts 170°
2026-05-07 07:16 41.46863 12.88905 39024 ft 464 kts 170°
2026-05-07 07:17 41.40636 12.91189 39024 ft 464 kts 170°
2026-05-07 07:17 41.34401 12.93471 39024 ft 465 kts 170°
2026-05-07 07:18 41.28163 12.95750 39023 ft 465 kts 170°
2026-05-07 07:18 41.21917 12.98027 39023 ft 465 kts 170°
2026-05-07 07:19 41.15664 13.00302 39023 ft 466 kts 170°
2026-05-07 07:19 41.09446 13.02560 39022 ft 466 kts 170°
2026-05-07 07:20 41.03190 13.04827 39022 ft 466 kts 170°
2026-05-07 07:20 40.96919 13.07095 39021 ft 467 kts 170°
2026-05-07 07:21 40.90636 13.09363 39020 ft 467 kts 170°
2026-05-07 07:21 40.84356 13.11626 39015 ft 468 kts 171°
2026-05-07 07:22 40.78109 13.13872 39022 ft 468 kts 171°
2026-05-07 07:22 40.71818 13.16131 39024 ft 468 kts 171°
2026-05-07 07:23 40.65526 13.18384 39021 ft 469 kts 171°
2026-05-07 07:23 40.59221 13.20645 39020 ft 469 kts 171°
2026-05-07 07:24 40.52918 13.22902 39021 ft 470 kts 171°
2026-05-07 07:24 40.46597 13.25149 39021 ft 470 kts 171°
2026-05-07 07:25 40.37125 13.28507 39020 ft 470 kts 171°
2026-05-07 07:26 40.30804 13.30750 39019 ft 471 kts 170°
2026-05-07 07:26 40.24642 13.33669 39011 ft 476 kts 163°
2026-05-07 07:27 40.18565 13.37219 39003 ft 479 kts 162°
2026-05-07 07:27 40.12469 13.40755 39001 ft 479 kts 162°
2026-05-07 07:28 40.06337 13.44205 39005 ft 479 kts 163°
2026-05-07 07:28 40.00196 13.47629 39002 ft 479 kts 163°
2026-05-07 07:29 39.94082 13.51055 38999 ft 482 kts 163°
2026-05-07 07:29 39.87902 13.54503 38996 ft 483 kts 164°
2026-05-07 07:30 39.81726 13.57931 38993 ft 481 kts 164°
2026-05-07 07:30 39.75563 13.61344 38989 ft 482 kts 164°
2026-05-07 07:31 39.69391 13.64768 38986 ft 482 kts 164°
2026-05-07 07:31 39.63246 13.68164 38982 ft 482 kts 164°
2026-05-07 07:32 39.57067 13.71557 38978 ft 482 kts 164°
2026-05-07 07:32 39.50880 13.74948 38974 ft 482 kts 165°
2026-05-07 07:33 39.44691 13.78336 38970 ft 483 kts 165°
2026-05-07 07:33 39.38522 13.81818 38966 ft 485 kts 162°
2026-05-07 07:34 39.32439 13.85616 38963 ft 486 kts 162°
2026-05-07 07:34 39.26321 13.89404 38959 ft 488 kts 163°
2026-05-07 07:35 39.20218 13.93137 38952 ft 488 kts 163°
2026-05-07 07:35 39.14063 13.96887 38946 ft 489 kts 163°
2026-05-07 07:36 39.08955 14.00035 38943 ft 490 kts 163°
2026-05-07 07:36 39.02783 14.03802 38941 ft 491 kts 164°
2026-05-07 07:37 38.96589 14.07553 38940 ft 493 kts 164°
2026-05-07 07:37 38.90380 14.11306 38939 ft 493 kts 165°
2026-05-07 07:38 38.84154 14.15064 38939 ft 494 kts 165°
2026-05-07 07:38 38.77964 14.18792 38529 ft 495 kts 165°
2026-05-07 07:38 38.74804 14.20689 37738 ft 494 kts 165°
2026-05-07 07:39 38.71692 14.22557 36939 ft 495 kts 165°
2026-05-07 07:39 38.68613 14.24405 36138 ft 495 kts 165°
2026-05-07 07:39 38.65500 14.26275 35371 ft 493 kts 165°
2026-05-07 07:39 38.62390 14.28134 34598 ft 492 kts 165°
2026-05-07 07:40 38.59292 14.30011 33806 ft 492 kts 164°
2026-05-07 07:40 38.56200 14.31876 32997 ft 491 kts 164°
2026-05-07 07:40 38.53103 14.33728 32178 ft 490 kts 163°
2026-05-07 07:40 38.50019 14.35564 31372 ft 488 kts 162°
2026-05-07 07:41 38.46944 14.37400 30557 ft 485 kts 162°
2026-05-07 07:41 38.43901 14.39213 29883 ft 480 kts 161°
2026-05-07 07:41 38.40894 14.41003 29213 ft 474 kts 161°
2026-05-07 07:41 38.37921 14.42771 28557 ft 469 kts 160°
2026-05-07 07:42 38.34979 14.44518 27916 ft 464 kts 160°
2026-05-07 07:42 38.32067 14.46250 27284 ft 459 kts 160°
2026-05-07 07:42 38.29183 14.47956 26657 ft 455 kts 160°
2026-05-07 07:42 38.26363 14.49622 26044 ft 450 kts 159°
2026-05-07 07:43 38.23528 14.51297 25424 ft 446 kts 159°
2026-05-07 07:43 38.20731 14.52963 24811 ft 442 kts 158°
2026-05-07 07:43 38.17955 14.54617 24198 ft 438 kts 158°
2026-05-07 07:43 38.15197 14.56250 23584 ft 435 kts 158°
2026-05-07 07:44 38.12464 14.57862 22977 ft 431 kts 158°
2026-05-07 07:44 38.09752 14.59459 22375 ft 427 kts 159°
2026-05-07 07:44 38.07067 14.61038 21778 ft 424 kts 159°
2026-05-07 07:44 38.04400 14.62604 21192 ft 420 kts 159°
2026-05-07 07:45 38.01751 14.64159 20608 ft 417 kts 159°
2026-05-07 07:45 37.99130 14.65698 20027 ft 414 kts 159°
2026-05-07 07:45 37.96510 14.67146 19456 ft 407 kts 163°
2026-05-07 07:45 37.93939 14.68490 18903 ft 402 kts 161°
2026-05-07 07:46 37.91334 14.69642 18332 ft 389 kts 173°
2026-05-07 07:46 37.88686 14.69748 17774 ft 376 kts 192°
2026-05-07 07:46 37.86250 14.68723 17248 ft 366 kts 211°
2026-05-07 07:46 37.84317 14.66711 16791 ft 358 kts 230°
2026-05-07 07:47 37.82904 14.64100 15945 ft 363 kts 239°
2026-05-07 07:47 37.81706 14.61264 15188 ft 366 kts 242°
2026-05-07 07:47 37.80632 14.58390 14619 ft 365 kts 244°
2026-05-07 07:47 37.79591 14.55472 14061 ft 362 kts 243°
2026-05-07 07:48 37.78530 14.52599 13499 ft 360 kts 242°
2026-05-07 07:48 37.77327 14.49874 12962 ft 350 kts 232°
2026-05-07 07:48 37.75553 14.47868 12721 ft 335 kts 210°
2026-05-07 07:48 37.73432 14.46920 12715 ft 315 kts 194°
2026-05-07 07:49 37.71340 14.46462 12608 ft 295 kts 190°
2026-05-07 07:49 37.69365 14.46246 12523 ft 274 kts 186°
2026-05-07 07:49 37.67524 14.46170 12442 ft 256 kts 181°
2026-05-07 07:49 37.65831 14.46635 12372 ft 246 kts 164°
2026-05-07 07:50 37.64421 14.47805 12322 ft 248 kts 145°
2026-05-07 07:50 37.63368 14.49554 12219 ft 258 kts 126°
2026-05-07 07:50 37.62721 14.51794 11882 ft 287 kts 110°
2026-05-07 07:50 37.62493 14.54347 11284 ft 297 kts 96°
2026-05-07 07:51 37.62667 14.56897 10985 ft 289 kts 88°
2026-05-07 07:51 37.62940 14.59404 10691 ft 287 kts 88°
2026-05-07 07:51 37.63172 14.61867 10577 ft 278 kts 88°
2026-05-07 07:51 37.63385 14.64260 10407 ft 272 kts 89°
2026-05-07 07:52 37.63552 14.66630 10125 ft 270 kts 90°
2026-05-07 07:52 37.63666 14.68991 9837 ft 267 kts 96°
2026-05-07 07:52 37.63217 14.71181 9558 ft 254 kts 122°
2026-05-07 07:52 37.62037 14.72723 9376 ft 240 kts 149°
2026-05-07 07:53 37.60527 14.73554 9136 ft 235 kts 160°
2026-05-07 07:53 37.58976 14.74306 8619 ft 243 kts 162°
2026-05-07 07:53 37.57320 14.74811 8055 ft 245 kts 173°
2026-05-07 07:53 37.55682 14.74476 7737 ft 237 kts 202°
2026-05-07 07:54 37.54489 14.73143 7661 ft 233 kts 232°
2026-05-07 07:54 37.53892 14.71239 7476 ft 233 kts 248°
2026-05-07 07:54 37.53521 14.69235 7148 ft 238 kts 254°
2026-05-07 07:54 37.53144 14.67217 6909 ft 234 kts 243°
2026-05-07 07:55 37.52218 14.65570 6636 ft 229 kts 219°
2026-05-07 07:55 37.50805 14.64721 6195 ft 228 kts 189°
2026-05-07 07:55 37.49245 14.64805 5972 ft 222 kts 170°
2026-05-07 07:55 37.47761 14.65245 5749 ft 218 kts 168°
2026-05-07 07:56 37.46277 14.65591 5493 ft 215 kts 171°
2026-05-07 07:56 37.44853 14.66062 5240 ft 210 kts 153°
2026-05-07 07:56 37.43869 14.67377 5003 ft 209 kts 119°
2026-05-07 07:56 37.43612 14.69170 4776 ft 210 kts 98°
2026-05-07 07:57 37.43645 14.71015 4528 ft 211 kts 91°
2026-05-07 07:57 37.43781 14.72835 4314 ft 212 kts 88°
2026-05-07 07:57 37.43955 14.74676 4090 ft 211 kts 87°
2026-05-07 07:57 37.44122 14.76501 3905 ft 208 kts 87°
2026-05-07 07:58 37.44278 14.78282 3776 ft 202 kts 87°
2026-05-07 07:58 37.44429 14.80037 3640 ft 201 kts 87°
2026-05-07 07:58 37.44576 14.81765 3465 ft 196 kts 88°
2026-05-07 07:58 37.44717 14.83423 3288 ft 184 kts 88°
2026-05-07 07:59 37.44845 14.84944 3139 ft 168 kts 88°
2026-05-07 07:59 37.44966 14.86381 2984 ft 163 kts 88°
2026-05-07 07:59 37.45085 14.87790 2770 ft 161 kts 88°
2026-05-07 07:59 37.45203 14.89186 2551 ft 159 kts 88°
2026-05-07 08:00 37.45320 14.90570 2342 ft 158 kts 87°
2026-05-07 08:00 37.45435 14.91940 2130 ft 157 kts 87°
2026-05-07 08:00 37.45550 14.93302 1929 ft 155 kts 86°
2026-05-07 08:00 37.45662 14.94630 1725 ft 154 kts 86°
2026-05-07 08:01 37.45774 14.95966 1527 ft 152 kts 86°
2026-05-07 08:01 37.45883 14.97258 1321 ft 144 kts 84°
2026-05-07 08:01 37.45983 14.98445 1119 ft 130 kts 82°
2026-05-07 08:01 37.46083 14.99555 967 ft 125 kts 79°
2026-05-07 08:02 37.46170 15.00633 775 ft 121 kts 79°
2026-05-07 08:02 37.46264 15.01700 623 ft 125 kts 79°
2026-05-07 08:02 37.46345 15.02779 447 ft 125 kts 79°
2026-05-07 08:02 37.46440 15.03868 320 ft 124 kts 78°
2026-05-07 08:03 37.46528 15.04939 143 ft 122 kts 78°
2026-05-07 08:03 37.46615 15.05958 56 ft 106 kts 79°
2026-05-07 08:03 37.46679 15.06700 54 ft 60 kts 83°
2026-05-07 08:03 37.46704 15.06992 54 ft 12 kts 84°
2026-05-07 08:04 37.46715 15.07131 54 ft 20 kts 83°
2026-05-07 08:04 37.46729 15.07300 54 ft 19 kts 85°
2026-05-07 08:04 37.46740 15.07462 54 ft 18 kts 81°
2026-05-07 08:04 37.46774 15.07611 54 ft 18 kts 68°
2026-05-07 08:05 37.46828 15.07730 54 ft 11 kts 54°
2026-05-07 08:05 37.46871 15.07794 54 ft 9 kts 32°
2026-05-07 08:05 37.46927 15.07777 54 ft 9 kts 292°
2026-05-07 08:05 37.46927 15.07642 54 ft 20 kts 264°
2026-05-07 08:06 37.46913 15.07470 54 ft 19 kts 263°
2026-05-07 08:06 37.46899 15.07306 54 ft 18 kts 263°
2026-05-07 08:06 37.46886 15.07150 54 ft 17 kts 264°
2026-05-07 08:06 37.46874 15.07004 54 ft 16 kts 264°
2026-05-07 08:07 37.46863 15.06883 54 ft 12 kts 263°
2026-05-07 08:07 37.46858 15.06800 54 ft 7 kts 280°
2026-05-07 08:07 37.46891 15.06768 54 ft 6 kts 344°
2026-05-07 08:07 37.46911 15.06764 54 ft 2 kts 353°
2026-05-07 08:08 37.46922 15.06763 54 ft 0 kts 353°